FW8334 Weather Reports


Display with metric or nautical units.
time (UTC)temp
F
wind
direction
speed
MPH
gust
MPH
rain 1hr
in
rain 24hr
in
rain mn
in
humidity
%
barometer
mb
20260906040110 73 0 0.0 1.0 0.00 0.00 0.00 69 1011.2
20260906034559 74 0 0.0 0.0 0.00 0.00 0.00 68 1011.2
20260906033045 74 0 0.0 0.0 0.00 0.00 0.00 68 1011.3
20260906031550 74 0 0.0 0.0 0.00 0.00 0.00 68 1011.1
20260906030054 74 0 0.0 0.0 0.00 0.00 0.00 71 1010.9
20260906024546 74 0 0.0 0.0 0.00 0.00 0.00 72 1010.9
20260906023051 75 0 0.0 2.0 0.00 0.00 0.00 72 1010.8
20260906021559 76 0 0.0 1.0 0.00 0.00 0.00 69 1010.7
20260906020058 77 266 0.0 2.0 0.00 0.00 0.00 66 1010.8
20260906014555 77 0 0.0 4.0 0.00 0.00 0.00 62 1010.9
20260906013051 78 289 1.0 4.0 0.00 0.00 0.00 56 1010.9
20260906011550 79 253 2.0 5.0 0.00 0.00 0.00 51 1011.0
20260906010047 80 238 1.0 7.0 0.00 0.00 0.00 48 1010.9
20260906004545 82 267 1.0 4.0 0.00 0.00 0.00 46 1010.9
20260906003050 83 275 1.0 4.0 0.00 0.00 0.00 48 1010.8
20260906001557 83 273 2.0 6.0 0.00 0.00 0.00 46 1010.9
20260906000047 84 259 1.0 7.0 0.00 0.00 0.00 46 1010.9
20260905234545 84 240 2.0 8.0 0.00 0.00 0.00 41 1011.0
20260905233047 85 257 2.0 5.0 0.00 0.00 0.00 41 1010.8
20260905231549 85 295 2.0 9.0 0.00 0.00 0.00 39 1010.8
20260905230055 0 220 2.0 2.0 0.00 0.00 0.00 36 1011.0
20260905224557 86 2.0 5.0 0.00 0.00 0.00 41 1011.0
20260905223047 86 267 3.0 8.0 0.00 0.00 0.00 40 1011.0
20260905221550 86 262 2.0 9.0 0.00 0.00 0.00 45 1011.2
20260905220047 86 218 3.0 7.0 0.00 0.00 0.00 46 1011.2
20260905214553 86 269 2.0 8.0 0.00 0.00 0.00 50 1011.3
20260905213047 87 263 2.0 8.0 0.00 0.00 0.00 49 1011.5
20260905211550 88 242 3.0 6.0 0.00 0.00 0.00 49 1011.6
20260905210108 86 281 2.0 6.0 0.00 0.00 0.00 49 1011.6
20260905204549 86 245 2.0 7.0 0.00 0.00 0.00 48 1011.7
20260905203049 86 225 3.0 8.0 0.00 0.00 0.00 47 1011.8
20260905201555 87 261 2.0 6.0 0.00 0.00 0.00 46 1012.0
20260905200058 84 301 2.0 5.0 0.00 0.00 0.00 53 1012.1
20260905194552 83 316 1.0 5.0 0.00 0.00 0.00 53 1012.2
20260905193049 81 226 2.0 4.0 0.00 0.00 0.00 56 1012.4
20260905191548 78 0 0.0 4.0 0.00 0.00 0.00 62 1012.9
20260905190047 78 270 1.0 4.0 0.00 0.00 0.00 63 1012.9
20260905184606 79 244 2.0 4.0 0.00 0.00 0.00 60 1013.0
20260905183049 79 265 1.0 3.0 0.00 0.00 0.00 56 1013.0
20260905181557 79 0 1.0 4.0 0.00 0.00 0.00 57 1013.1
20260905180100 78 243 1.0 3.0 0.00 0.00 0.00 58 1013.1
20260905174554 77 295 1.0 3.0 0.00 0.00 0.00 59 1013.0
20260905173045 76 261 1.0 4.0 0.00 0.00 0.00 62 1013.0
20260905171603 75 337 1.0 4.0 0.00 0.00 0.00 63 1012.8
20260905170055 74 316 1.0 3.0 0.00 0.00 0.00 64 1013.0
20260905164549 73 0 0.0 3.0 0.00 0.00 0.00 67 1013.0
20260905163053 73 240 0.0 1.0 0.00 0.00 0.00 73 1012.8
20260905161548 71 0 0.0 0.0 0.00 0.00 0.00 74 1012.8
20260905160052 69 0 0.0 0.0 0.00 0.00 0.00 74 1012.9
20260905154557 69 0 0.0 0.0 0.00 0.00 0.00 76 1012.9
20260905153048 68 0 0.0 0.0 0.00 0.00 0.00 77 1012.6
20260905151546 65 0 0.0 0.0 0.00 0.00 0.00 88 1012.5
20260905150044 63 0 0.0 0.0 0.00 0.00 0.00 92 1012.5
20260905144553 60 0 0.0 0.0 0.00 0.00 0.00 94 1012.4
20260905143047 59 0 0.0 0.0 0.00 0.00 0.00 95 1012.0
20260905141553 59 0 0.0 0.0 0.00 0.00 0.00 95 1012.0
20260905140053 58 0 0.0 0.0 0.00 0.00 0.00 95 1012.1
20260905134551 57 0 0.0 9.0 0.00 0.00 0.00 95 1011.8
20260905133054 57 0 0.0 0.0 0.00 0.00 0.00 95 1011.7
20260905131553 57 0 0.0 0.0 0.00 0.00 0.00 95 1011.5
20260905130048 58 0 0.0 0.0 0.00 0.00 0.00 95 1011.5
20260905124549 58 0 0.0 0.0 0.00 0.00 0.00 95 1011.5
20260905123043 58 0 0.0 0.0 0.00 0.00 0.00 94 1011.5
20260905121548 58 0 0.0 0.0 0.00 0.00 0.00 94 1011.7
20260905120048 58 0 0.0 0.0 0.00 0.00 0.00 95 1011.5
20260905114555 58 0 0.0 0.0 0.00 0.00 0.00 94 1011.5
20260905113051 58 0 0.0 0.0 0.00 0.00 0.00 94 1011.6
20260905111547 58 0 0.0 0.0 0.00 0.00 0.00 94 1011.6
20260905110046 58 0 0.0 0.0 0.00 0.00 0.00 94 1011.7
20260905104548 58 0 0.0 0.0 0.00 0.00 0.00 94 1011.7
20260905103051 59 0 0.0 0.0 0.00 0.00 0.00 94 1011.8
20260905101547 58 0 0.0 2.0 0.00 0.00 0.00 94 1011.8
20260905100048 59 90 1.0 2.0 0.00 0.00 0.00 93 1012.0
20260905094600 59 0 0.0 1.0 0.00 0.00 0.00 94 1012.0
20260905093048 59 0 0.0 2.0 0.00 0.00 0.00 93 1011.9
20260905091548 60 0 0.0 0.0 0.00 0.00 0.00 93 1011.9
20260905090051 60 0 0.0 0.0 0.00 0.00 0.00 93 1012.0
20260905084547 60 0 0.0 0.0 0.00 0.00 0.00 93 1012.1
20260905083046 60 0 0.0 1.0 0.00 0.00 0.00 93 1012.3
20260905081558 61 0 0.0 2.0 0.00 0.00 0.00 93 1012.4
20260905080059 61 89 1.0 3.0 0.00 0.00 0.00 92 1012.5
20260905074548 61 90 1.0 2.0 0.00 0.00 0.00 92 1012.8
20260905073048 61 90 1.0 2.0 0.00 0.00 0.00 92 1012.8
20260905071554 61 90 1.0 3.0 0.00 0.00 0.00 92 1012.7
20260905070048 61 99 1.0 2.0 0.00 0.00 0.00 91 1012.8
20260905064554 61 300 1.0 3.0 0.00 0.00 0.00 91 1012.7
20260905063048 62 300 1.0 2.0 0.00 0.00 0.00 91 1012.8
20260905061605 61 300 0.0 2.0 0.00 0.00 0.00 91 1012.7
20260905060048 61 300 1.0 2.0 0.00 0.00 0.00 90 1012.6
20260905054542 62 300 0.0 2.0 0.00 0.00 0.00 90 1012.7
20260905053053 62 300 1.0 2.0 0.00 0.00 0.00 89 1012.5
20260905051547 62 300 1.0 2.0 0.00 0.00 0.00 89 1012.5
20260905050048 62 0 0.0 1.0 0.00 0.00 0.00 89 1012.7
20260905044555 63 0 0.0 2.0 0.00 0.00 0.00 89 1012.4
20260905043111 63 0 0.0 0.0 0.00 0.00 0.00 88 1012.2
20260905041549 63 0 0.0 2.0 0.00 0.00 0.00 88 1012.1